Weather History for Marshall, MN

Change the Weather History Date:

Wednesday, October 26, 2011

  Actual Average Record
Temperature  
Mean Temperature 42 °F -  
Max Temperature 48 °F 58 °F 84 °F (1955)
Min Temperature 35 °F 34 °F 9 °F (1981)
Degree Days  
Heating Degree Days 24    
Moisture  
Dew Point 35 °F    
Average Humidity 76    
Maximum Humidity 93    
Minimum Humidity 54    
Precipitation  
Precipitation 0.00 in - - ()
Sea Level Pressure  
Sea Level Pressure 30.09 in    
Wind  
Wind Speed 10 mph (NNW)    
Max Wind Speed 17 mph    
Max Gust Speed 22 mph    
Visibility 10 miles    
Events      
Averages and records for this station are not official NWS values.
T = Trace of Precipitation, MM = Missing Value Source: NWS Daily Summary

Daily Weather History Graph

Daily Weather History Graph

Search for Another Location

Airport:

Trip Planner

Search our weather history database for the weather conditions in past years. The results will help you decide how hot, cold, wet, or windy it might be!

Date:

Astronomy

Oct. 26, 2011 Rise Set
Actual Time 7:52 AM CDT 6:21 PM CDT
Civil Twilight 7:22 AM CDT 6:51 PM CDT
Nautical Twilight 6:48 AM CDT 7:25 PM CDT
Astronomical Twilight 6:14 AM CDT 7:59 PM CDT
Moon 7:43 AM CDT (10/26) 6:01 PM CDT (10/26)
Length of Visible Light 11h 28m
Length of Day
10h 29m
Waning Crescent, 0% of the Moon is Illuminated
Oct 26
Waning Crescent
Oct 26
New
Nov 2
First Quarter
Nov 10
Full
Nov 18
Last Quarter

Hourly Weather History & Observations

Time (CDT) Temp. Windchill Dew Point Humidity Pressure Visibility Wind Dir Wind Speed Gust Speed Precip Events Conditions
12:15 AM 42.8 °F 40.1 °F 37.4 °F 81% 30.06 in 10.0 mi NNW 4.6 mph - N/A   Overcast
12:35 AM 42.8 °F 38.6 °F 37.4 °F 81% 30.06 in 10.0 mi NNW 6.9 mph - N/A   Overcast
12:55 AM 42.8 °F 40.1 °F 37.4 °F 81% 30.06 in 10.0 mi North 4.6 mph - N/A   Overcast
1:15 AM 42.8 °F - 37.4 °F 81% 30.06 in 10.0 mi North - - N/A   Overcast
1:55 AM 41.0 °F - 35.6 °F 81% 30.07 in 10.0 mi North - - N/A   Mostly Cloudy
2:15 AM 39.2 °F 35.0 °F 37.4 °F 93% 30.06 in 10.0 mi WNW 5.8 mph - N/A   Overcast
2:35 AM 39.2 °F - 37.4 °F 93% 30.07 in 10.0 mi North - - N/A   Scattered Clouds
2:55 AM 39.2 °F - 35.6 °F 87% 30.08 in 10.0 mi North - - N/A   Scattered Clouds
3:15 AM 39.2 °F - 35.6 °F 87% 30.08 in 10.0 mi North - - N/A   Mostly Cloudy
3:35 AM 39.2 °F - 35.6 °F 87% 30.07 in 10.0 mi North - - N/A   Scattered Clouds
3:55 AM 39.2 °F - 35.6 °F 87% 30.07 in 10.0 mi North - - N/A   Scattered Clouds
4:15 AM 37.4 °F - 35.6 °F 93% 30.06 in 10.0 mi North - - N/A   Partly Cloudy
4:35 AM 37.4 °F - 33.8 °F 87% 30.07 in 10.0 mi North - - N/A   Clear
4:55 AM 37.4 °F - 35.6 °F 93% 30.08 in 10.0 mi North - - N/A   Mostly Cloudy
5:15 AM 37.4 °F - 35.6 °F 93% 30.08 in 10.0 mi North - - N/A   Overcast
5:35 AM 39.2 °F - 35.6 °F 87% 30.08 in 10.0 mi North - - N/A   Overcast
5:55 AM 39.2 °F - 35.6 °F 87% 30.08 in 10.0 mi North - - N/A   Overcast
6:15 AM 39.2 °F - 37.4 °F 93% 30.08 in 10.0 mi North - - N/A   Overcast
6:35 AM 39.2 °F - 37.4 °F 93% 30.09 in 10.0 mi North - - N/A   Overcast
7:15 AM 39.2 °F - 35.6 °F 87% 30.08 in 10.0 mi North - - N/A   Mostly Cloudy
7:35 AM 39.2 °F - 35.6 °F 87% 30.09 in 10.0 mi North - - N/A   Mostly Cloudy
7:55 AM 39.2 °F - 35.6 °F 87% 30.08 in 10.0 mi North - - N/A   Scattered Clouds
8:15 AM 39.2 °F - 37.4 °F 93% 30.08 in 10.0 mi North - - N/A   Mostly Cloudy
8:35 AM 41.0 °F - 37.4 °F 87% 30.09 in 10.0 mi North - - N/A   Overcast
8:55 AM 41.0 °F - 37.4 °F 87% 30.10 in 9.0 mi North - - N/A   Overcast
9:15 AM 42.8 °F - 37.4 °F 81% 30.10 in 10.0 mi North - - N/A   Mostly Cloudy
9:35 AM 42.8 °F - 37.4 °F 81% 30.10 in 9.0 mi North - - N/A   Overcast
9:55 AM 42.8 °F - 37.4 °F 81% 30.10 in 9.0 mi North - - N/A   Overcast
10:15 AM 42.8 °F - 37.4 °F 81% 30.12 in 9.0 mi North - - N/A   Overcast
10:55 AM 44.6 °F - 37.4 °F 76% 30.12 in 10.0 mi North - - N/A   Overcast
11:15 AM 44.6 °F - 37.4 °F 76% 30.12 in 10.0 mi North - - N/A   Overcast
11:55 AM 44.6 °F - 37.4 °F 76% 30.13 in 10.0 mi North - - N/A   Overcast
12:15 PM 44.6 °F - 35.6 °F 71% 30.13 in 10.0 mi North - - N/A   Overcast
12:35 PM 46.4 °F - 35.6 °F 66% 30.13 in 10.0 mi North - - N/A   Overcast
12:55 PM 46.4 °F - 35.6 °F 66% 30.13 in 10.0 mi North - - N/A   Mostly Cloudy
1:15 PM 48.2 °F - 35.6 °F 62% 30.12 in 10.0 mi North - - N/A   Scattered Clouds
1:35 PM 46.4 °F - 35.6 °F 66% 30.11 in 10.0 mi North - - N/A   Scattered Clouds
1:55 PM 48.2 °F - 35.6 °F 62% 30.11 in 10.0 mi North - - N/A   Mostly Cloudy
2:15 PM 48.2 °F - 33.8 °F 58% 30.10 in 10.0 mi NW 13.8 mph 20.7 mph N/A   Mostly Cloudy
2:35 PM 48.2 °F - 35.6 °F 62% 30.10 in 10.0 mi NNW 15.0 mph - N/A   Mostly Cloudy
2:55 PM 46.4 °F 39.8 °F 33.8 °F 62% 30.09 in 10.0 mi NNW 16.1 mph 20.7 mph N/A   Mostly Cloudy
3:15 PM 48.2 °F - 33.8 °F 58% 30.09 in 10.0 mi NNW 16.1 mph - N/A   Overcast
3:35 PM 46.4 °F 40.1 °F 33.8 °F 62% 30.08 in 10.0 mi NW 15.0 mph 21.9 mph N/A   Mostly Cloudy
3:55 PM 46.4 °F 39.8 °F 33.8 °F 62% 30.08 in 10.0 mi North 16.1 mph 19.6 mph N/A   Overcast
4:15 PM 48.2 °F - 32.0 °F 54% 30.08 in 10.0 mi North 17.3 mph 20.7 mph N/A   Mostly Cloudy
4:35 PM 46.4 °F 40.4 °F 32.0 °F 57% 30.09 in 10.0 mi NNW 13.8 mph - N/A   Overcast
4:55 PM 46.4 °F 41.1 °F 33.8 °F 62% 30.09 in 10.0 mi NNW 11.5 mph 18.4 mph N/A   Mostly Cloudy
5:15 PM 46.4 °F 41.1 °F 33.8 °F 62% 30.08 in 10.0 mi North 11.5 mph - N/A   Scattered Clouds
5:35 PM 46.4 °F 41.9 °F 33.8 °F 62% 30.08 in 10.0 mi North 9.2 mph - N/A   Partly Cloudy
5:55 PM 46.4 °F - 33.8 °F 62% 30.08 in 10.0 mi North - - N/A   Mostly Cloudy
6:15 PM 44.6 °F - 33.8 °F 66% 30.08 in 10.0 mi North - - N/A   Mostly Cloudy
6:35 PM 44.6 °F - 32.0 °F 61% 30.08 in 10.0 mi North - - N/A   Clear
6:55 PM 42.8 °F - 33.8 °F 70% 30.08 in 10.0 mi North - - N/A   Clear
7:15 PM 42.8 °F - 32.0 °F 66% 30.08 in 10.0 mi North - - N/A   Clear
7:35 PM 39.2 °F - 30.2 °F 70% 30.09 in 10.0 mi North - - N/A   Clear
7:55 PM 39.2 °F - 30.2 °F 70% 30.08 in 10.0 mi North - - N/A   Clear
8:15 PM 37.4 °F - 30.2 °F 75% 30.08 in 10.0 mi North - - N/A   Clear
8:35 PM 37.4 °F - 28.4 °F 70% 30.08 in 10.0 mi North - - N/A   Clear
8:55 PM 35.6 °F - 28.4 °F 75% 30.08 in 10.0 mi North - - N/A   Clear
9:15 PM 35.6 °F 29.9 °F 28.4 °F 75% 30.08 in 10.0 mi West 6.9 mph - N/A   Clear
9:35 PM 37.4 °F 32.1 °F 28.4 °F 70% 30.08 in 10.0 mi West 6.9 mph - N/A   Clear
9:55 PM 35.6 °F 29.9 °F 26.6 °F 70% 30.08 in 10.0 mi WSW 6.9 mph - N/A   Clear
10:15 PM 35.6 °F 31.7 °F 28.4 °F 75% 30.08 in 10.0 mi WSW 4.6 mph - N/A   Clear
10:35 PM 35.6 °F 29.9 °F 28.4 °F 75% 30.08 in 10.0 mi SW 6.9 mph - N/A   Clear
10:55 PM 35.6 °F 29.2 °F 28.4 °F 75% 30.08 in 10.0 mi SW 8.1 mph - N/A   Clear
11:15 PM 35.6 °F 29.9 °F 28.4 °F 75% 30.08 in 10.0 mi WSW 6.9 mph - N/A   Clear
11:35 PM 35.6 °F 29.2 °F 26.6 °F 70% 30.08 in 10.0 mi SW 8.1 mph - N/A   Clear